Location: Blienschwiller
(48.3416°N, 7.4182°E)
Time: 00:49:35
(UTC+00:00)

USA 215 - Pass Details

Date: 18 February 2020
Orbit: 1098 x 1110 km, 123.0° (Epoch: 08 March)

Event Time Altitude Azimuth Distance (km) Brightness Sun altitude
Rises 02:28:43 0° 55° (NE) 3,925 7.0 -40.1°
Reaches altitude 10° 02:31:12 10° 54° (NE) 2,967 6.2 -39.7°
Enters shadow 02:35:33 45° 48° (NE) 1,460 4.1 -39.1°
